Volver al catálogo

CBERS 1 DEB

ActivoPO
NORAD 35387·DEBRIS·🇧🇷 Brazil🇨🇳 China

Lanzado Oct 14, 1999 desde Taiyuan Satellite Launch Center

Loading…

Próximos Pases (próximas 24 horas)

TLE

ActualizadoSource: Space-Track

Época: Sep 12, 2026, 10:21 UTC

1 35387U 99057SS  26255.43134798  .00009217  00000-0  92263-3 0  9999
2 35387  98.4928 338.9221 0000458 341.6576  18.4624 14.91659022982244

Sigue CBERS 1 DEB en tiempo real con AllMySat

Download on the App Store